#timestamp,LO_Frequency,Hit,StdDev 
1605711615.4,286046995.1,N
1605711635.3,286046999.2,N
1605711655.1,286046995.8,N
1605711675.8,286046994.0,N
1605711695.7,286046994.4,N
1605711715.5,286046994.5,N
1605711735.4,286046992.2,N
1605711755.2,286046995.6,N
1605711775.0,286046999.2,N
1605711775.9,286046999.2,N
1605711795.8,286046998.3,N
1605711815.6,286046998.4,N
1605711835.4,286046998.1,N
1605711855.3,286046999.1,N
1605711875.1,286046995.8,N
1605711895.9,286046997.9,N
1605711915.7,286046997.2,N
1605711935.5,286046997.7,N
1605711955.4,286046996.6,N
1605711975.2,286046998.4,N
1605711995.0,286047000.0,N
1605711995.9,286047000.0,N
1605712015.8,286046998.9,N
1605712035.6,286046998.1,N
1605712055.5,286046999.4,N
1605712075.3,286046998.7,N
1605712095.1,286046998.3,N
1605712115.9,286046998.8,N
1605712135.7,286047000.8,N
1605712155.6,286047002.4,N
1605712175.4,286047001.5,N
1605712195.2,286047002.0,N
1605712215.1,286047000.8,N
1605712216.0,286047000.8,N
1605712235.8,286046999.9,N
1605712255.7,286046998.8,N
1605712275.5,286046999.0,N
1605712295.3,286047001.0,N
1605712315.2,286046998.8,N
1605712335.9,286046998.4,N
1605712355.7,286046997.0,N
1605712375.6,286046995.3,Y
1605712395.4,286046998.4,P
1605712415.3,286046998.1,P
1605712435.1,286046996.5,P
1605712436.0,286046996.5,Y
1605712455.8,286046998.1,P
1605712475.7,286047001.8,P
1605712495.5,286047002.5,N
1605712515.3,286047000.6,N
1605712535.2,286047000.3,N
1605712555.0,286047004.3,N
1605712555.9,286047004.3,N
1605712575.8,286047002.7,N
1605712595.6,286047001.1,N
1605712615.4,286047002.8,N
1605712635.3,286046998.7,N
1605712655.1,286047001.7,N
1605712675.8,286047004.1,N
1605712695.7,286047002.1,N
1605712715.5,286047001.4,N
1605712735.4,286046998.1,N
1605712755.2,286046998.3,N
1605712775.0,286046999.6,N
1605712775.9,286046999.6,N
1605712795.8,286046999.1,N
1605712815.6,286046998.9,N
1605712835.4,286046998.2,N
1605712855.3,286046999.0,N
1605712875.1,286047000.8,N
1605712895.9,286047000.6,N
1605712915.7,286047000.8,N
1605712935.5,286046998.5,N
1605712955.4,286047000.2,N
1605712975.2,286047000.0,N
1605712995.0,286046996.7,N
1605712995.9,286046996.7,N
1605713015.8,286046999.2,N
1605713035.6,286046996.7,N
1605713055.5,286046995.1,N
1605713075.3,286046996.7,N
1605713095.1,286046998.7,N
1605713115.9,286046997.4,N
1605713135.3,286046994.0,N
1605713155.2,286046995.4,N
1605713175.0,286046998.7,N
1605713175.9,286046998.7,N
1605713195.8,286047000.1,N
1605713215.6,286047001.1,N
1605713235.4,286046998.3,N
1605713255.3,286046998.8,N
1605713275.1,286047002.7,N
1605713295.9,286046999.3,N
1605713315.7,286046996.5,N
1605713335.5,286046997.7,N
1605713355.4,286046997.6,N
1605713375.2,286046995.0,N
1605713395.0,286046997.8,N
1605713396.0,286046997.8,N
1605713415.8,286046997.0,N
1605713435.6,286046996.4,N
1605713455.5,286046993.4,Y
1605713475.3,286046995.8,P
1605713495.1,286046995.2,P
1605713515.9,286046997.7,N
1605713535.7,286046995.5,Y
1605713555.6,286046999.0,P
1605713575.4,286046997.2,N
1605713595.2,286046996.6,P
1605713615.1,286046997.2,N
1605713616.0,286046997.2,Y
1605713635.8,286046998.7,P
1605713655.7,286046998.8,N
1605713675.5,286046999.5,N
1605713695.3,286046998.4,N
1605713715.2,286046996.8,Y
1605713735.0,286046999.4,P
1605713735.9,286046999.4,N
1605713755.7,286046999.2,N
1605713775.6,286046998.6,Y
1605713795.4,286047000.8,P
1605713815.3,286046998.8,N
1605713835.1,286046997.0,P
1605713836.0,286046997.0,N
1605713855.8,286046995.4,Y
1605713875.7,286047000.5,P
1605713895.5,286047002.3,N
1605713915.4,286047004.0,N
1605713935.2,286047001.7,N
1605713955.0,286047002.6,N
1605713955.9,286047002.6,N
1605713975.8,286047000.2,N
1605713995.6,286047001.0,N
1605714015.5,286047000.1,N
1605714035.3,286047002.3,N
1605714055.1,286047001.9,N
1605714075.9,286047001.2,N
1605714095.7,286047000.7,N
1605714115.5,286047003.9,N
1605714135.4,286047001.7,N
1605714155.2,286047002.7,N
1605714175.0,286046999.7,N
1605714175.9,286046999.7,N
1605714195.8,286047002.8,N
1605714215.6,286047002.6,N
1605714235.5,286047000.6,N
1605714255.3,286046998.8,N
1605714275.1,286046999.2,N
1605714295.9,286046999.0,N
1605714315.7,286046998.3,N
1605714335.5,286047000.4,N
1605714355.4,286047002.5,N
1605714375.2,286047000.0,N
1605714395.1,286046998.8,N
1605714396.0,286046998.8,N
1605714415.8,286046998.7,N
1605714435.6,286046998.3,N
1605714455.5,286046999.7,N
1605714475.3,286047001.2,N
1605714495.1,286046998.9,N
1605714515.9,286047000.3,N
1605714535.7,286047000.2,N
1605714555.6,286046999.7,N
1605714575.4,286046999.8,N
1605714595.2,286046998.7,N
1605714615.1,286046997.9,N
1605714616.0,286046997.9,N
1605714635.8,286046997.1,N
1605714655.6,286046997.8,N
1605714675.5,286046996.0,N
1605714695.3,286046993.5,Y
1605714715.2,286046994.0,P
1605714735.9,286046994.5,N
1605714755.7,286046994.4,N
1605714775.6,286046994.2,N
1605714795.4,286046992.4,Y
1605714815.3,286046995.0,P
1605714835.1,286046996.6,P
1605714836.0,286046996.6,P
1605714855.8,286046997.4,Y
1605714875.7,286047001.6,P
1605714895.5,286047002.5,N
1605714915.3,286047003.9,N
1605714935.2,286047005.6,N
1605714955.0,286047003.8,N
1605714955.9,286047003.8,N
1605714975.8,286047003.3,N
1605714995.6,286047005.4,N
1605715015.4,286047004.7,N
1605715035.3,286047004.7,N
1605715055.1,286047007.2,N
1605715075.8,286047004.5,N
1605715095.7,286047005.4,N
1605715115.5,286047006.4,N
1605715135.4,286047006.1,N
1605715155.2,286047008.9,Y
1605715175.0,286047003.1,P
1605715175.9,286047003.1,P
1605715195.8,286047002.3,P
